Home > Weather > Voronezh > Past weeks

Flag for Russia Past Weather in Voronezh, Russia — Yesterday and Last 2 Weeks

Now
64 °F

Sunny.


Feels Like: 64 °F
Forecast: 61 / 76 °F
Wind: 6 mph from Northeast

Location: Voronez

Current Time: Jun 30, 2016 at 6:22:25 AM

Latest Report: Jun 30, 2016 at 5:30 AM


Visibility: 10 mi

Pressure: 29.89 "Hg

Humidity: 64%

Dew Point: 52 °F

Location of VoronezhLocation

Past Weather in Voronezh — Graph

°F

Voronezh Temperature Yesterday

Maximum temperature yesterday: 79 °F (at 3:30 PM)
Minimum temperature yesterday: 59 °F (at 4:30 AM)
Average temperature yesterday: 71 °F

High & Low Weather Summary for the Past Weeks

 TemperatureHumidityPressure
High88 °F (Jun 27, 2:00 PM)100% (Jun 18, 4:30 AM)30.30 "Hg (Jun 18, 4:30 AM)
Low57 °F (Jun 25, 3:00 AM)37% (Jun 25, 2:00 PM)29.71 "Hg (Jun 15, 1:00 PM)
Average72 °F70%30.04 "Hg
* Reported Jun 15 5:00 AM — Jun 30 5:00 AM, Voronezh, Weather by CustomWeather, © 2016

Note: Actual official high and low records may vary slightly from our data, if they occured in-between our weather recording intervals... More about our weather records

Advertising

Voronezh Weather History for the Previous 24 Hours

Scroll right to see more
 ConditionsComfort  
Time TempWeatherWind HumidityBarometerVisibility
5:00 AM
Thu, Jun 30
64 °FSunny.1 mph64%29.89 "Hg10 mi
4:30 AM63 °FSunny.6 mph64%29.89 "Hg10 mi
4:00 AM63 °FClear.8 mph64%29.86 "Hg10 mi
3:30 AM63 °FClear.6 mph64%29.86 "Hg10 mi
3:00 AM64 °FClear.8 mph60%29.86 "Hg10 mi
2:30 AM64 °FClear.6 mph60%29.89 "Hg10 mi
2:00 AM64 °FClear.6 mph64%29.89 "Hg10 mi
1:30 AM66 °FClear.6 mph60%29.89 "Hg10 mi
1:00 AM66 °FClear.6 mph60%29.89 "Hg10 mi
12:30 AM64 °FClear.6 mph64%29.89 "Hg10 mi
12:00 AM66 °FClear.6 mph64%29.89 "Hg10 mi
11:30 PM
Wed, Jun 29
66 °FClear.6 mph64%29.89 "Hg10 mi
11:00 PM68 °FClear.6 mph60%29.86 "Hg10 mi
10:30 PM68 °FClear.6 mph60%29.86 "Hg10 mi
10:00 PM68 °FClear.6 mph60%29.86 "Hg10 mi
9:30 PM68 °FClear.6 mph60%29.86 "Hg10 mi
9:00 PM70 °FClear.6 mph57%29.86 "Hg10 mi
8:30 PM70 °FSunny.6 mph60%29.86 "Hg10 mi
8:00 PM72 °FSunny.6 mph57%29.86 "Hg10 mi
7:30 PM73 °FSunny.8 mph53%29.86 "Hg10 mi
7:00 PM75 °FSunny.8 mph50%29.86 "Hg10 mi
6:30 PM75 °FSunny.6 mph50%29.83 "Hg10 mi
6:00 PM77 °FSunny.6 mph54%29.83 "Hg10 mi
5:30 PM79 °FSunny.8 mph48%29.83 "Hg10 mi
5:00 PM79 °FSunny.10 mph48%29.83 "Hg10 mi
4:30 PM79 °FSunny.8 mph48%29.83 "Hg10 mi
4:00 PM79 °FSunny.8 mph48%29.86 "Hg10 mi
3:30 PM79 °FSunny.8 mph48%29.86 "Hg10 mi
3:00 PM77 °FSunny.8 mph51%29.86 "Hg10 mi
2:30 PM77 °FSunny.8 mph51%29.86 "Hg10 mi
2:00 PM77 °FSunny.6 mph47%29.86 "Hg10 mi
1:30 PM77 °FSunny.6 mph51%29.86 "Hg10 mi
1:00 PM77 °FSunny.8 mph51%29.86 "Hg10 mi
12:30 PM77 °FSunny.8 mph44%29.86 "Hg10 mi
12:00 PM77 °FSunny.6 mph47%29.86 "Hg10 mi
11:00 AM73 °FSunny.8 mph53%29.89 "Hg10 mi
10:30 AM73 °FSunny.8 mph53%29.89 "Hg10 mi
10:00 AM72 °FSunny.8 mph61%29.86 "Hg10 mi
9:30 AM72 °FSunny.6 mph57%29.86 "Hg10 mi
9:00 AM70 °FScattered clouds.6 mph57%29.86 "HgN/A
8:30 AM68 °FScattered clouds.10 mph60%29.83 "HgN/A
8:00 AM68 °FScattered clouds.13 mph60%29.83 "HgN/A
7:30 AM68 °FPartly sunny.10 mph60%29.86 "HgN/A
7:00 AM66 °FPartly sunny.10 mph64%29.86 "HgN/A
6:30 AM64 °FPartly sunny.10 mph68%29.86 "HgN/A
6:00 AM64 °FSunny.8 mph68%29.86 "Hg10 mi
Weather by CustomWeather, © 2016

See weather overviewHow to use our weather pages